[[{"header":{"parameterUnit":"m.s-1","parameterCategory":1,"la1":30.2991,"la2":30.254,"lo1":-89.0895,"lo2":-89.0444,"dy":0.0017,"dx":0.0017,"nx":28,"ny":28,"refTime":"2025-12-02T03:00:00:Z","depth":0,"parameterNumber":2,"parameterNumberName":"U-component_of_WINDS"},"data":[0,0,0,0,0,0,0,0,0,0,0,0,0,0,0,0,0,0,0,0,0,0,0,0,0,0,0,0,0,0,0,0,0,0,0,0,0,0,0,0,0,0,0,0,0,0,0,0,0,0,0,0,0,0,0,0,0,0,-1.4733,-1.4733,0,-1.4689,-1.4689,-1.4688,-1.4601,-1.4599,-1.4597,-1.4596,-1.4553,-1.4553,-1.4554,0,0,0,0,0,0,0,0,0,0,0,0,0,-1.4745,-1.4745,-1.4733,-1.4733,-1.4732,-1.4689,-1.4689,-1.4688,-1.4601,-1.4599,-1.4597,-1.4595,-1.4553,-1.4553,-1.4554,0,0,0,0,0,0,0,0,0,0,0,0,0,-1.4725,-1.4745,-1.4734,-1.4684,-1.4679,-1.4689,-1.4689,-1.4688,-1.4601,-1.4599,-1.4596,-1.4594,-1.4553,-1.4553,-1.4554,-1.4611,0,0,-1.4556,-1.4557,0,0,0,0,0,0,0,0,-1.4726,-1.4724,-1.4691,-1.4687,-1.4682,-1.4648,-1.4677,-1.4662,-1.4602,-1.4631,-1.4595,-1.4592,-1.4587,-1.4584,-1.4582,-1.4609,-1.4607,-1.4556,-1.4557,-1.4557,-1.4557,0,0,0,0,0,0,0,-1.4727,-1.4726,-1.4716,-1.4691,-1.4685,-1.4664,-1.4659,-1.4674,-1.4624,-1.4628,-1.4622,-1.4617,-1.4584,-1.4582,-1.458,-1.4606,-1.4556,-1.4557,-1.4557,-1.4558,-1.4678,-1.468,0,0,0,0,0,0,-1.4736,-1.4727,-1.4717,-1.4715,-1.4698,-1.4666,-1.466,-1.4661,-1.4624,-1.4615,-1.462,-1.4614,-1.4582,-1.458,-1.4579,-1.4642,-1.4557,-1.4558,-1.4558,-1.4675,-1.4678,-1.4681,0,0,0,0,0,0,-1.4736,-1.4736,-1.4719,-1.4719,-1.4716,-1.4669,-1.4671,-1.4662,-1.466,-1.4617,-1.4608,-1.4627,-1.4579,-1.4578,-1.4603,-1.464,-1.4558,-1.4559,-1.4672,-1.4676,-1.468,-1.4771,0,0,0,0,0,0,-1.4737,-1.4736,-1.4757,-1.472,-1.4716,-1.4744,-1.4673,-1.4663,-1.4661,-1.4652,-1.4621,-1.4614,-1.4577,-1.4603,-1.4604,-1.4639,-1.4559,-1.4668,-1.4674,-1.4678,-1.4764,-1.4778,-1.4789,0,0,0,0,0,-1.4738,-1.4785,-1.4758,-1.4757,-1.474,-1.4746,-1.4744,-1.47,-1.4664,-1.4685,-1.4657,-1.4615,-1.4636,-1.4606,-1.4607,-1.4643,-1.4666,-1.4672,-1.4678,-1.4759,-1.4775,-1.4789,0,0,0,0,0,0,-1.4827,-1.4779,-1.4749,-1.4785,-1.4771,-1.4731,-1.4756,-1.4719,-1.4714,-1.4707,-1.4653,-1.4647,-1.468,-1.4664,-1.4632,-1.4696,-1.4644,-1.4651,-1.4705,-1.472,-1.4732,-1.4735,-1.456,0,0,0,0,0,-1.4851,-1.4859,-1.4817,-1.4853,-1.4847,-1.4803,-1.4804,-1.4772,-1.4755,-1.4748,-1.4723,-1.4709,-1.4712,-1.4715,-1.4716,-1.4762,-1.4754,-1.4787,-1.4799,-1.481,-1.4816,-1.484,-1.4854,-1.4702,-1.4701,-1.4701,0,0,-1.4901,-1.4875,-1.4884,-1.487,-1.4855,-1.4865,-1.4798,-1.4812,-1.482,-1.475,-1.4773,-1.4754,-1.4735,-1.4771,-1.4786,-1.4759,-1.4857,-1.4818,-1.4826,-1.4827,-1.4848,-1.4862,-1.4875,-1.4706,-1.4705,-1.4704,0,0,-1.4996,-1.4977,-1.5005,-1.4992,-1.4969,-1.4939,-1.4947,-1.4913,-1.4898,-1.4919,-1.4868,-1.4877,-1.4883,-1.4872,-1.4867,-1.4959,-1.492,-1.4961,-1.5025,-1.5049,-1.5061,-1.5071,-1.5104,-1.5117,-1.4967,-1.4968,-1.4968,0,-1.506,-1.5073,-1.5025,-1.5042,-1.5038,-1.4975,-1.5004,-1.4993,-1.4973,-1.4972,-1.4942,-1.4949,-1.4931,-1.4964,-1.4987,-1.4985,-1.4992,-1.4964,-1.5063,-1.5073,-1.5082,-1.5113,-1.5125,-1.4973,-1.4972,-1.4972,-1.4971,0,-1.5154,-1.5164,-1.5189,-1.517,-1.5169,-1.5192,-1.5148,-1.5153,-1.5122,-1.5096,-1.5119,-1.5096,-1.5091,-1.5097,-1.5066,-1.5126,-1.511,-1.5072,-1.5019,-1.5102,-1.513,-1.5142,-1.498,-1.4978,-1.4977,-1.4975,0,0,-1.5304,-1.5258,-1.5268,-1.5259,-1.523,-1.5237,-1.5258,-1.5252,-1.5258,-1.5246,-1.5262,-1.527,-1.5235,-1.523,-1.5197,-1.5218,-1.5293,-1.5178,-1.5176,-1.52,-1.5358,-1.5387,-1.5401,-1.5267,-1.5269,-1.5271,-1.536,0,-1.5392,-1.5424,-1.5382,-1.5423,-1.5432,-1.5373,-1.5391,-1.5376,-1.5353,-1.5358,-1.5332,-1.5338,-1.5292,-1.5288,-1.5306,-1.528,-1.5324,-1.5273,-1.5283,-1.5283,-1.5289,-1.5416,-1.5446,-1.5531,-1.537,-1.5372,-1.5374,0,-1.55,-1.5493,-1.5535,-1.5504,-1.5506,-1.5523,-1.5514,-1.552,-1.5502,-1.5483,-1.5478,-1.5439,-1.5458,-1.5407,-1.5433,-1.5399,-1.5401,-1.5389,-1.5391,-1.539,-1.5334,-1.5418,-1.5557,-1.557,-1.5391,-1.5389,-1.5388,0,-1.5605,-1.5606,-1.5631,-1.5625,-1.559,-1.5603,-1.5589,-1.5568,-1.5568,-1.5561,-1.5561,-1.5557,-1.5555,-1.5554,-1.5515,-1.5481,-1.5547,-1.5492,-1.5532,-1.5534,-1.5548,-1.5548,-1.5689,-1.555,-1.555,-1.555,-1.5549,0,-1.5709,-1.5737,-1.5678,-1.5694,-1.5724,-1.5676,-1.5707,-1.5687,-1.567,-1.5681,-1.5631,-1.5643,-1.5591,-1.5598,-1.5569,-1.5595,-1.5595,-1.5581,-1.5573,-1.5585,-1.5587,-1.5586,-1.5579,-1.5553,-1.5552,-1.5552,-1.5551,0,-1.5831,-1.5793,-1.5816,-1.5781,-1.5772,-1.5796,-1.5766,-1.578,-1.5753,-1.5769,-1.5769,-1.5729,-1.5734,-1.5696,-1.5695,-1.5675,-1.5716,-1.5698,-1.5722,-1.5716,-1.5759,-1.5756,-1.5904,-1.5921,-1.5771,-1.5773,-1.5774,0,-1.5899,-1.5919,-1.5886,-1.5889,-1.5878,-1.5884,-1.5884,-1.5838,-1.5839,-1.5821,-1.5837,-1.5838,-1.5837,-1.5849,-1.582,-1.5819,-1.58,-1.5852,-1.5799,-1.5812,-1.5801,-1.58,-1.5802,-1.5863,-1.5865,-1.5866,-1.5868,0,-1.6025,-1.6005,-1.6005,-1.6,-1.6,-1.5994,-1.5984,-1.599,-1.594,-1.5945,-1.5949,-1.5948,-1.5947,-1.5949,-1.5943,-1.5929,-1.5891,-1.5884,-1.5894,-1.5907,-1.592,-1.5914,-1.5752,-1.5881,-1.588,-1.5879,-1.5878,-1.5877,-1.6122,-1.6137,-1.6116,-1.6119,-1.6106,-1.6098,-1.6109,-1.6085,-1.6087,-1.6082,-1.6055,-1.6065,-1.6048,-1.6035,-1.6025,-1.6033,-1.6008,-1.6021,-1.6025,-1.6029,-1.6037,-1.5919,-1.6031,-1.6031,-1.6031,-1.603,-1.603,0,-1.6245,-1.6228,-1.6231,-1.6219,-1.6221,-1.6184,-1.6171,-1.6176,-1.6185,-1.6172,-1.6171,-1.6177,-1.618,-1.6151,-1.615,-1.6162,-1.6144,-1.6163,-1.6161,-1.6159,-1.6059,-1.6051,-1.6177,-1.6177,-1.6177,-1.6177,-1.6177,-1.6177,-1.6309,-1.6333,-1.6311,-1.6329,-1.6312,-1.6321,-1.6317,-1.631,-1.6299,-1.6308,-1.6309,-1.629,-1.6271,-1.6268,-1.6269,-1.626,-1.6262,-1.6288,-1.6273,-1.618,-1.6166,-1.6152,-1.6144,-1.6288,-1.6288,-1.6372,-1.6373,-1.6374]},{"header":{"parameterUnit":"m.s-1","parameterCategory":1,"la1":30.2991,"la2":30.254,"lo1":-89.0895,"lo2":-89.0444,"dy":0.0017,"dx":0.0017,"nx":28,"ny":28,"refTime":"2025-12-02T03:00:00:Z","depth":0,"parameterNumber":3,"parameterNumberName":"V-component_of_WINDS"},"data":[0,0,0,0,0,0,0,0,0,0,0,0,0,0,0,0,0,0,0,0,0,0,0,0,0,0,0,0,0,0,0,0,0,0,0,0,0,0,0,0,0,0,0,0,0,0,0,0,0,0,0,0,0,0,0,0,0,0,-0.3562,-0.3562,0,-0.3572,-0.3572,-0.3572,-0.3543,-0.3542,-0.3541,-0.354,-0.3552,-0.3553,-0.3554,0,0,0,0,0,0,0,0,0,0,0,0,0,-0.352,-0.3521,-0.3562,-0.3562,-0.3563,-0.3572,-0.3572,-0.3572,-0.3543,-0.3542,-0.3541,-0.354,-0.3551,-0.3553,-0.3554,0,0,0,0,0,0,0,0,0,0,0,0,0,-0.3535,-0.3521,-0.3562,-0.3549,-0.3548,-0.3572,-0.3572,-0.3572,-0.3543,-0.3542,-0.3541,-0.354,-0.3551,-0.3552,-0.3554,-0.3591,0,0,-0.3559,-0.356,0,0,0,0,0,0,0,0,-0.3534,-0.3536,-0.3551,-0.355,-0.3549,-0.3555,-0.3561,-0.3579,-0.3544,-0.3545,-0.354,-0.3539,-0.3554,-0.3555,-0.356,-0.3592,-0.3592,-0.3559,-0.356,-0.3561,-0.3562,0,0,0,0,0,0,0,-0.3533,-0.3536,-0.3566,-0.3551,-0.355,-0.3543,-0.3544,-0.3564,-0.3557,-0.3545,-0.3543,-0.3544,-0.3553,-0.3558,-0.356,-0.3592,-0.3559,-0.3561,-0.3562,-0.3563,-0.3654,-0.3656,0,0,0,0,0,0,-0.3533,-0.3535,-0.3566,-0.3566,-0.3538,-0.3545,-0.3546,-0.3554,-0.3557,-0.3556,-0.3546,-0.3543,-0.3556,-0.3558,-0.356,-0.3604,-0.3561,-0.3563,-0.3564,-0.3653,-0.3655,-0.3656,0,0,0,0,0,0,-0.3533,-0.3536,-0.3565,-0.355,-0.3553,-0.3547,-0.3557,-0.3555,-0.3561,-0.3557,-0.3556,-0.3552,-0.3555,-0.3558,-0.3583,-0.3604,-0.3563,-0.3565,-0.3651,-0.3654,-0.3656,-0.3691,0,0,0,0,0,0,-0.3532,-0.3536,-0.355,-0.3551,-0.3554,-0.3588,-0.3558,-0.3556,-0.3563,-0.356,-0.3563,-0.3562,-0.3554,-0.3581,-0.3585,-0.3605,-0.3566,-0.365,-0.3652,-0.3655,-0.3688,-0.3695,-0.37,0,0,0,0,0,-0.353,-0.356,-0.3551,-0.3555,-0.3572,-0.359,-0.3592,-0.3582,-0.3565,-0.3579,-0.3577,-0.3562,-0.3601,-0.3584,-0.3588,-0.3609,-0.3648,-0.3652,-0.3655,-0.3686,-0.3693,-0.37,0,0,0,0,0,0,-0.3564,-0.356,-0.355,-0.3581,-0.3586,-0.3585,-0.3602,-0.359,-0.36,-0.3597,-0.3584,-0.3585,-0.3613,-0.3613,-0.3595,-0.3645,-0.3622,-0.3626,-0.3644,-0.3651,-0.3657,-0.3656,-0.3568,0,0,0,0,0,-0.3574,-0.3589,-0.3585,-0.3613,-0.3616,-0.3609,-0.3616,-0.3608,-0.3613,-0.3615,-0.3614,-0.3619,-0.3632,-0.3642,-0.3653,-0.3688,-0.3688,-0.3704,-0.371,-0.3715,-0.3719,-0.3737,-0.3744,-0.3667,-0.3667,-0.3667,0,0,-0.3597,-0.3597,-0.3608,-0.362,-0.3623,-0.3639,-0.3611,-0.3629,-0.364,-0.3617,-0.3642,-0.3641,-0.3646,-0.3676,-0.369,-0.3678,-0.374,-0.3719,-0.3723,-0.3724,-0.3741,-0.3749,-0.3755,-0.3669,-0.3669,-0.3668,0,0,-0.3647,-0.3648,-0.3672,-0.3675,-0.3679,-0.3673,-0.3679,-0.3679,-0.3678,-0.3702,-0.3685,-0.3698,-0.3722,-0.3726,-0.3731,-0.3781,-0.3768,-0.3785,-0.3815,-0.3833,-0.3839,-0.3845,-0.3863,-0.387,-0.3789,-0.3789,-0.3789,0,-0.3675,-0.3698,-0.3686,-0.3705,-0.3711,-0.3689,-0.3713,-0.3717,-0.3725,-0.3729,-0.3716,-0.3744,-0.3746,-0.3776,-0.3789,-0.3793,-0.3799,-0.3786,-0.3839,-0.3845,-0.385,-0.3867,-0.3874,-0.3791,-0.3791,-0.3791,-0.3791,0,-0.3733,-0.3749,-0.3767,-0.3775,-0.3783,-0.3804,-0.3795,-0.3804,-0.3795,-0.3791,-0.3815,-0.3817,-0.3828,-0.3835,-0.3826,-0.3864,-0.3857,-0.3842,-0.3818,-0.3859,-0.3876,-0.3882,-0.3794,-0.3794,-0.3793,-0.3792,0,0,-0.3806,-0.3805,-0.3812,-0.3815,-0.3817,-0.383,-0.3849,-0.386,-0.3869,-0.3875,-0.3892,-0.3911,-0.3896,-0.3902,-0.3894,-0.3909,-0.3949,-0.3892,-0.3892,-0.3903,-0.3992,-0.4004,-0.4012,-0.394,-0.3941,-0.3942,-0.3992,0,-0.3855,-0.389,-0.3878,-0.3913,-0.3928,-0.3907,-0.3925,-0.3928,-0.3925,-0.3937,-0.3933,-0.3947,-0.3927,-0.393,-0.3944,-0.3941,-0.3967,-0.3937,-0.3956,-0.3957,-0.3957,-0.402,-0.4034,-0.408,-0.3998,-0.3999,-0.4,0,-0.3918,-0.3926,-0.3962,-0.3961,-0.3967,-0.3983,-0.3992,-0.4003,-0.4006,-0.4003,-0.4009,-0.3997,-0.4016,-0.3991,-0.4019,-0.3999,-0.4005,-0.4005,-0.4007,-0.4009,-0.3982,-0.4025,-0.4095,-0.4102,-0.4009,-0.4009,-0.4008,0,-0.3969,-0.3988,-0.4012,-0.4015,-0.4014,-0.4026,-0.4026,-0.4028,-0.4035,-0.4043,-0.4047,-0.4057,-0.4063,-0.4071,-0.4062,-0.4044,-0.409,-0.4065,-0.4088,-0.4089,-0.41,-0.41,-0.4173,-0.4103,-0.4103,-0.4103,-0.4103,0,-0.4026,-0.4049,-0.4034,-0.4049,-0.4075,-0.4061,-0.4086,-0.4084,-0.4086,-0.41,-0.4083,-0.4096,-0.4083,-0.4096,-0.4088,-0.4112,-0.4115,-0.4113,-0.4111,-0.4115,-0.4115,-0.412,-0.4117,-0.4105,-0.4104,-0.4104,-0.4103,0,-0.4087,-0.4078,-0.4103,-0.41,-0.41,-0.4118,-0.4116,-0.413,-0.4124,-0.4143,-0.4146,-0.4138,-0.4152,-0.4143,-0.4157,-0.4152,-0.4184,-0.4177,-0.4183,-0.4181,-0.4206,-0.4204,-0.4285,-0.4295,-0.4218,-0.4219,-0.4219,0,-0.4125,-0.4142,-0.4141,-0.4149,-0.415,-0.4163,-0.417,-0.4157,-0.4165,-0.4169,-0.4182,-0.4194,-0.4204,-0.4227,-0.4222,-0.4233,-0.4227,-0.4254,-0.4228,-0.4232,-0.4228,-0.4228,-0.423,-0.426,-0.4261,-0.4262,-0.4263,0,-0.4193,-0.4187,-0.4198,-0.4206,-0.4215,-0.4221,-0.4226,-0.4234,-0.422,-0.423,-0.4244,-0.4251,-0.4265,-0.4277,-0.4286,-0.4286,-0.4273,-0.427,-0.4277,-0.4282,-0.4285,-0.4284,-0.4198,-0.4269,-0.4268,-0.4268,-0.4268,-0.4267,-0.4244,-0.4258,-0.4259,-0.4271,-0.4273,-0.4278,-0.4291,-0.4287,-0.4298,-0.4308,-0.4299,-0.4316,-0.4317,-0.4328,-0.433,-0.4342,-0.4331,-0.434,-0.4343,-0.4345,-0.4349,-0.4282,-0.4344,-0.4344,-0.4343,-0.4343,-0.4343,0,-0.4312,-0.4311,-0.4322,-0.4329,-0.4339,-0.4324,-0.4328,-0.4337,-0.4352,-0.4354,-0.4363,-0.4379,-0.439,-0.4387,-0.4397,-0.4408,-0.4402,-0.4411,-0.4411,-0.4411,-0.4358,-0.4352,-0.4416,-0.4416,-0.4416,-0.4416,-0.4416,-0.4416,-0.4349,-0.4372,-0.4366,-0.439,-0.4389,-0.4405,-0.4409,-0.4413,-0.4415,-0.4433,-0.4442,-0.4439,-0.444,-0.445,-0.446,-0.4458,-0.4463,-0.4475,-0.4472,-0.4422,-0.4415,-0.4408,-0.4403,-0.4476,-0.4476,-0.4524,-0.4524,-0.4525]}]]